FW8060 Weather Reports


Display with metric or nautical units.
time (UTC)temp
F
wind
direction
speed
MPH
gust
MPH
rain 1hr
in
rain 24hr
in
rain mn
in
humidity
%
barometer
mb
20260507121924 58 63 0.0 4.0 0.00 0.00 0.00 60 1015.8
20260507120909 59 330 1.0 4.0 0.00 0.00 0.00 61 1015.9
20260507115919 59 327 1.0 4.0 0.00 0.00 0.00 62 1015.9
20260507114917 59 84 1.0 2.0 0.00 0.00 0.00 61 1015.8
20260507113916 59 266 1.0 3.0 0.00 0.00 0.00 60 1015.7
20260507112913 59 254 2.0 5.0 0.00 0.00 0.00 61 1015.8
20260507112234 59 91 1.0 3.0 0.00 0.00 0.00 63 1015.9
20260507111933 59 343 1.0 6.0 0.00 0.00 0.00 62 1015.8
20260507105909 58 335 2.0 5.0 0.00 0.00 0.00 63 1016.0
20260507104915 58 326 1.0 5.0 0.00 0.00 0.00 63 1016.1
20260507103903 58 0 1.0 4.0 0.00 0.00 0.00 62 1016.1
20260507102903 58 293 2.0 5.0 0.00 0.00 0.00 62 1016.2
20260507102101 59 155 2.0 6.0 0.00 0.00 0.00 62 1016.2
20260507101923 59 258 2.0 7.0 0.00 0.00 0.00 62 1016.2
20260507095905 59 226 4.0 8.0 0.00 0.00 0.00 63 1016.1
20260507094911 59 242 1.0 6.0 0.00 0.00 0.00 63 1016.2
20260507093911 58 189 2.0 8.0 0.00 0.00 0.00 64 1016.1
20260507092909 60 223 3.0 7.0 0.00 0.00 0.00 65 1016.0
20260507092355 58 178 2.0 7.0 0.00 0.00 0.00 68 1015.9
20260507091952 60 160 2.0 8.0 0.00 0.00 0.00 64 1016.1
20260507085905 58 116 2.0 5.0 0.00 0.00 0.00 70 1015.9
20260507085831 53 125 0.0 2.0 0.00 0.00 0.00 82 1015.7
20260507084930 57 161 3.0 5.0 0.00 0.00 0.00 72 1015.6
20260507084131 56 131 2.0 6.0 0.00 0.00 0.00 76 1015.8
20260507083033 53 134 2.0 4.0 0.00 0.00 0.00 80 1015.7
20260507082029 53 121 1.0 4.0 0.00 0.00 0.00 81 1015.6
20260507080821 53 125 1.0 2.0 0.00 0.00 0.00 84 1015.7
20260507074907 52 125 0.0 3.0 0.00 0.00 0.00 86 1015.6
20260507074140 51 61 1.0 4.0 0.00 0.00 0.00 87 1015.4
20260507073926 52 61 0.0 3.0 0.00 0.00 0.00 87 1015.5
20260507071908 51 61 1.0 4.0 0.00 0.00 0.00 88 1015.4
20260507070859 50 61 1.0 2.0 0.00 0.00 0.00 89 1015.3
20260507065857 50 61 1.0 4.0 0.00 0.00 0.00 89 1015.2
20260507064855 50 61 1.0 4.0 0.00 0.00 0.00 88 1015.4
20260507063900 50 61 0.0 4.0 0.00 0.00 0.00 88 1015.4
20260507062907 49 61 1.0 3.0 0.00 0.00 0.00 89 1015.3
20260507061858 49 61 0.0 1.0 0.00 0.00 0.00 90 1015.3
20260507060857 49 61 0.0 1.0 0.00 0.00 0.00 90 1015.1
20260507055851 49 61 0.0 2.0 0.00 0.00 0.00 90 1015.0
20260507054855 49 61 0.0 2.0 0.00 0.00 0.00 90 1014.9
20260507053852 48 61 0.0 1.0 0.00 0.00 0.00 91 1014.8
20260507052851 48 61 0.0 2.0 0.00 0.00 0.00 92 1014.6
20260507051851 48 61 0.0 2.0 0.00 0.00 0.00 93 1014.5
20260507050848 48 61 0.0 1.0 0.00 0.00 0.00 94 1014.4
20260507045845 47 61 0.0 1.0 0.00 0.00 0.00 95 1014.3
20260507044849 47 61 0.0 2.0 0.00 0.00 0.00 95 1014.3
20260507043846 47 61 0.0 2.0 0.00 0.00 0.00 95 1014.3
20260507042846 47 61 0.0 2.0 0.00 0.00 0.00 95 1014.2
20260507041931 48 53 0.0 4.0 0.00 0.00 0.00 95 1014.1
20260507041852 47 61 1.0 3.0 0.00 0.00 0.00 95 1014.1
20260507035847 48 138 0.0 0.0 0.00 0.00 0.00 95 1013.9
20260507034844 48 138 0.0 0.0 0.00 0.00 0.00 95 1013.9
20260507033938 47 119 0.0 1.0 0.00 0.00 0.00 95 1013.8
20260507033852 48 138 0.0 1.0 0.00 0.00 0.00 95 1013.8
20260507031849 47 288 0.0 0.0 0.00 0.00 0.00 95 1013.7
20260507030843 47 288 0.0 0.0 0.00 0.00 0.00 95 1013.7
20260507025842 47 288 0.0 0.0 0.00 0.00 0.00 95 1013.6
20260507025646 47 288 0.0 2.0 0.00 0.00 0.00 95 1013.6
20260507023842 47 288 0.0 1.0 0.00 0.00 0.00 95 1013.5
20260507023831 47 288 0.0 0.0 0.00 0.00 0.00 95 1013.4
20260507022634 46 313 0.0 0.0 0.00 0.00 0.00 95 1013.4
20260507021848 46 288 0.0 2.0 0.00 0.00 0.00 95 1013.4
20260507021045 46 288 1.0 3.0 0.00 0.00 0.00 95 1013.4
20260507020343 46 313 0.0 0.0 0.00 0.00 0.00 94 1013.2
20260507015835 46 313 0.0 0.0 0.00 0.00 0.00 95 1013.3
20260507015027 46 313 0.0 0.0 0.00 0.00 0.00 95 1013.3
20260507013931 46 313 0.0 0.0 0.00 0.00 0.00 95 1013.3
20260507012946 46 313 0.0 0.0 0.00 0.00 0.00 95 1013.3
20260507011933 46 313 0.0 0.0 0.00 0.00 0.00 94 1013.2
20260507011325 46 313 0.0 0.0 0.00 0.00 0.00 95 1013.2
20260507011220 45 313 0.0 0.0 0.00 0.00 0.00 94 1013.3
20260507011031 46 313 0.0 0.0 0.00 0.00 0.00 94 1013.2
20260507004837 46 313 0.0 0.0 0.00 0.00 0.00 94 1013.2
20260507004728 46 313 0.0 0.0 0.00 0.00 0.00 94 1013.3
20260506235828 46 313 0.0 0.0 0.00 0.00 0.00 94 1013.3
20260506235745 46 313 0.0 0.0 0.00 0.00 0.00 94 1013.2
20260506233827 47 313 0.0 0.0 0.00 0.00 0.00 94 1013.2
20260506233754 47 313 0.0 0.0 0.00 0.00 0.00 94 1013.1
20260506231843 47 313 0.0 0.0 0.00 0.00 0.00 93 1013.0
20260506231043 47 313 0.0 0.0 0.00 0.00 0.00 93 1012.9
20260506230845 47 313 0.0 0.0 0.00 0.00 0.00 93 1013.0
20260506224817 47 313 0.0 0.0 0.00 0.00 0.00 93 1012.9
20260506223811 48 313 0.0 0.0 0.00 0.00 0.00 92 1012.9
20260506222828 48 313 0.0 0.0 0.00 0.00 0.00 92 1012.8
20260506221821 48 313 0.0 1.0 0.00 0.00 0.00 92 1012.7
20260506220817 48 313 0.0 1.0 0.00 0.00 0.00 91 1012.7
20260506215820 49 313 0.0 1.0 0.00 0.00 0.00 91 1012.8
20260506214815 49 313 0.0 2.0 0.00 0.00 0.00 91 1012.7
20260506213809 49 313 0.0 3.0 0.00 0.00 0.00 91 1012.8
20260506212811 49 313 0.0 0.0 0.00 0.00 0.00 91 1012.6
20260506211816 49 313 0.0 0.0 0.00 0.00 0.00 91 1012.7
20260506210825 49 313 0.0 2.0 0.00 0.00 0.00 90 1012.6
20260506205848 50 313 1.0 3.0 0.00 0.00 0.00 89 1012.4
20260506205822 50 313 0.0 3.0 0.00 0.00 0.00 90 1012.5
20260506205741 50 313 1.0 3.0 0.00 0.00 0.00 88 1012.4
20260506202814 51 279 2.0 5.0 0.00 0.00 0.00 88 1012.4
20260506201812 51 277 1.0 4.0 0.00 0.00 0.00 87 1012.3
20260506200807 51 288 2.0 9.0 0.00 0.00 0.00 86 1012.1
20260506195820 52 323 5.0 13.0 0.00 0.00 0.00 85 1012.0
20260506194807 52 324 4.0 9.0 0.00 0.00 0.00 85 1012.0
20260506193808 52 338 5.0 9.0 0.00 0.00 0.00 84 1011.9
20260506192808 52 323 6.0 11.0 0.00 0.00 0.00 83 1011.8
20260506191817 53 323 5.0 11.0 0.00 0.00 0.00 82 1011.7
20260506190817 53 0 6.0 11.0 0.00 0.00 0.00 82 1011.6
20260506185831 53 355 5.0 11.0 0.00 0.00 0.00 81 1011.6
20260506184815 53 309 6.0 12.0 0.00 0.00 0.00 80 1011.6
20260506183812 54 355 5.0 13.0 0.00 0.00 0.00 79 1011.3
20260506182829 54 317 5.0 10.0 0.00 0.00 0.00 79 1011.4
20260506181811 54 346 6.0 12.0 0.00 0.00 0.00 79 1011.2
20260506180808 54 331 6.0 13.0 0.00 0.00 0.00 77 1011.1
20260506175828 55 338 7.0 14.0 0.00 0.00 0.00 77 1011.0
20260506175331 55 325 5.0 10.0 0.00 0.00 0.00 76 1010.8
20260506173849 55 302 5.0 11.0 0.00 0.00 0.00 75 1010.6
20260506172821 55 335 6.0 15.0 0.00 0.00 0.00 75 1010.6
20260506171808 55 351 6.0 13.0 0.00 0.00 0.00 74 1010.5
20260506171508 56 14 7.0 13.0 0.00 0.00 0.00 75 1010.3
20260506171111 56 325 8.0 15.0 0.00 0.00 0.00 72 1010.3
20260506170831 56 313 6.0 13.0 0.00 0.00 0.00 75 1010.4
20260506163809 56 337 7.0 16.0 0.00 0.00 0.00 70 1010.1
20260506163253 57 347 7.0 17.0 0.00 0.00 0.00 70 1010.0
20260506161852 58 28 8.0 17.0 0.00 0.00 0.00 69 1010.0
20260506160814 57 346 5.0 13.0 0.00 0.00 0.00 69 1010.0
20260506155821 57 355 7.0 16.0 0.00 0.00 0.00 71 1010.1
20260506154815 58 302 9.0 17.0 0.00 0.00 0.00 71 1010.0
20260506153815 58 336 8.0 15.0 0.00 0.00 0.00 72 1010.1
20260506152810 57 350 7.0 14.0 0.00 0.00 0.00 70 1010.0
20260506151804 58 22 8.0 17.0 0.00 0.00 0.00 71 1010.1
20260506150806 58 339 9.0 16.0 0.00 0.00 0.00 70 1010.0
20260506145805 58 330 8.0 17.0 0.00 0.00 0.00 69 1010.1
20260506144810 58 330 10.0 18.0 0.00 0.00 0.00 70 1010.1
20260506143806 58 317 8.0 15.0 0.00 0.00 0.00 70 1010.0
20260506142806 58 329 8.0 15.0 0.00 0.00 0.00 69 1010.1
20260506141804 58 332 7.0 13.0 0.00 0.00 0.00 69 1010.0
20260506141027 59 34 7.0 16.0 0.00 0.00 0.00 67 1009.9
20260506140802 59 307 6.0 16.0 0.00 0.00 0.00 67 1009.9
20260506134806 58 306 7.0 15.0 0.00 0.00 0.00 67 1009.9
20260506133757 59 322 6.0 15.0 0.00 0.00 0.00 67 1009.9
20260506132759 58 355 7.0 15.0 0.00 0.00 0.00 69 1010.0
20260506131800 57 38 5.0 12.0 0.00 0.00 0.00 71 1009.9
20260506131215 57 346 6.0 13.0 0.00 0.00 0.00 74 1009.7
20260506130822 57 9 6.0 14.0 0.00 0.00 0.00 72 1009.9
20260506125816 57 5 7.0 15.0 0.00 0.00 0.00 73 1009.8
20260506123755 56 346 6.0 13.0 0.00 0.00 0.00 75 1009.6
20260506123431 56 350 7.0 15.0 0.00 0.00 0.00 76 1009.7